This is the latest recevied weather packets stored in our database for station/object N7NMS-13. If no packets are shown the sender has not sent any weather packets the latest 10 day(s).
| Time | Temp. | Humidity | Pressure | Rain* | Wind** | Luminosity | Snow |
|---|---|---|---|---|---|---|---|
| 1777378849 | 10° C | 97% | - | 0 mm | - | - | - |
| 1777378249 | 10° C | 96% | - | 0 mm | - | - | - |
| 1777377649 | 9.44° C | 96% | - | 0 mm | - | - | - |
| 1777377049 | 10° C | 96% | - | 0 mm | - | - | - |
| 1777375248 | 10° C | 96% | - | 0 mm | - | - | - |
| 1777373448 | 10° C | 94% | - | 0 mm | - | - | - |
| 1777372218 | 10.56° C | 92% | - | 0 mm | - | - | - |
| 1777371618 | 10.56° C | 92% | - | 0 mm | - | - | - |
| 1777371018 | 10.56° C | 88% | - | 0 mm | - | - | - |
| 1777370418 | 11.11° C | 87% | - | 0 mm | - | - | - |
| 1777369818 | 11.11° C | 85% | - | 0 mm | - | - | - |
| 1777369217 | 11.11° C | 80% | - | 0 mm | - | - | - |
| 1777368617 | 12.22° C | 77% | - | 0 mm | - | - | - |
| 1777367417 | 13.33° C | 69% | - | 0 mm | - | - | - |
| 1777365617 | 13.33° C | 68% | - | 0 mm | - | - | - |
| 1777364987 | 13.33° C | 68% | - | 0 mm | - | - | - |
| 1777364386 | 12.78° C | 68% | - | 0 mm | - | - | - |
| 1777363786 | 13.33° C | 68% | - | 0 mm | - | - | - |
| 1777363186 | 13.33° C | 67% | - | 0 mm | - | - | - |
| 1777362586 | 13.33° C | 67% | - | 0 mm | - | - | - |
| 1777361986 | 13.33° C | 67% | - | 0 mm | - | - | - |
| 1777361386 | 13.89° C | 68% | - | 0 mm | - | - | - |
| 1777360786 | 13.33° C | 68% | - | 0 mm | - | - | - |
| 1777360186 | 13.33° C | 69% | - | 0 mm | - | - | - |
| 1777359586 | 13.33° C | 68% | - | 0 mm | - | - | - |
* Rain latest hour (hover to see other rain measurements)
** Current wind speed in m/s (hover to see current wind gust speed)